Location: Ostrava
(49.8330°N, 18.2830°E)
Time: 15:03:23
(UTC+02:00)

Transit 2A - All Passes

Search period start: 20 October 2014 00:00
Search period end: 29 October 2014 23:00
Orbit: 599 x 964 km, 66.7° (Epoch: 19 October)

Date Brightness Start Highest point End Pass type
(mag) Time Alt. Az. Time Alt. Az. Time Alt. Az.
20 Oct - 04:10:10 10° SSE 04:13:38 23° ESE 04:17:17 10° ENE visible
20 Oct - 05:52:08 10° SW 05:56:27 53° NW 06:01:08 10° NNE visible
20 Oct - 07:37:55 10° WNW 07:40:50 16° NNW 07:43:54 10° NNE daylight
20 Oct - 09:24:33 10° NNW 09:26:14 12° N 09:27:58 10° NNE daylight
20 Oct - 11:07:36 10° NNW 11:11:28 21° NNE 11:15:36 10° ENE daylight
20 Oct - 12:50:17 10° NNW 12:55:35 68° NE 13:01:25 10° SE daylight
20 Oct - 14:34:04 10° WNW 14:38:30 26° WSW 14:43:16 10° SSW daylight
21 Oct - 03:37:35 10° SE 03:40:19 16° ESE 03:43:09 10° ENE visible
21 Oct - 05:18:26 10° SW 05:22:50 73° NW 05:27:36 10° NE visible
21 Oct - 07:03:39 10° WNW 07:06:57 19° NNW 07:10:27 10° NNE daylight
21 Oct - 08:50:37 10° NNW 08:52:14 11° N 08:53:54 10° NNE daylight
21 Oct - 10:34:08 10° NNW 10:37:36 18° NNE 10:41:16 10° ENE daylight
21 Oct - 12:16:47 10° NNW 12:21:57 53° NE 12:27:39 10° SE daylight
21 Oct - 14:00:12 10° NW 14:05:06 35° WSW 14:10:24 10° S daylight
22 Oct - 03:05:54 10° ESE 03:07:03 11° ESE 03:08:14 10° E visible
22 Oct - 04:44:54 10° SSW 04:49:17 80° SE 04:54:02 10° NE visible
22 Oct - 06:29:29 10° W 06:33:07 23° NNW 06:37:00 10° NNE visible
22 Oct - 08:16:28 10° NNW 08:18:15 12° N 08:20:04 10° NNE daylight
22 Oct - 10:00:40 10° NNW 10:03:42 16° NNE 10:06:53 10° ENE daylight
22 Oct - 11:43:18 10° NNW 11:48:17 41° NE 11:53:45 10° ESE daylight
22 Oct - 13:26:28 10° NW 13:31:39 47° WSW 13:37:18 10° S daylight
23 Oct - 04:11:30 10° SSW 04:15:47 56° ESE 04:20:24 10° NE visible
23 Oct - 05:55:24 10° W 05:59:19 28° NW 06:03:32 10° NNE visible
23 Oct - 07:42:11 10° NW 07:44:16 13° N 07:46:25 10° NNE daylight
23 Oct - 09:27:10 10° NNW 09:29:46 14° NNE 09:32:29 10° NE daylight
23 Oct - 11:09:50 10° NNW 11:14:34 33° NE 11:19:44 10° ESE daylight
23 Oct - 12:52:48 10° NW 12:58:09 63° WSW 13:04:01 10° SSE daylight
23 Oct - 14:38:33 10° W 14:40:33 12° WSW 14:42:36 10° SW daylight
24 Oct - 03:38:16 10° S 03:42:21 39° ESE 03:46:42 10° NE visible
24 Oct - 05:21:26 10° WSW 05:25:35 36° NW 05:30:04 10° NNE visible
24 Oct - 07:07:51 10° NW 07:10:18 14° NNW 07:12:52 10° NNE daylight
24 Oct - 08:53:35 10° NNW 08:55:48 13° N 08:58:05 10° NE daylight
24 Oct - 10:36:22 10° NNW 10:40:49 27° NE 10:45:36 10° E daylight
24 Oct - 12:19:13 10° NW 12:24:37 84° SW 12:30:34 10° SSE daylight
24 Oct - 14:03:46 10° WNW 14:07:15 17° WSW 14:10:54 10° SW daylight
25 Oct - 03:05:16 10° S 03:08:58 27° ESE 03:12:52 10° NE visible
25 Oct - 04:47:34 10° WSW 04:51:53 48° NW 04:56:34 10° NNE visible
25 Oct - 06:33:31 10° WNW 06:36:22 16° NNW 06:39:22 10° NNE visible
25 Oct - 08:19:54 10° NNW 08:21:49 12° N 08:23:47 10° NNE daylight
25 Oct - 10:02:55 10° NNW 10:07:00 23° NNE 10:11:23 10° E daylight
25 Oct - 11:45:39 10° NW 11:51:03 76° NE 11:56:59 10° SE daylight
25 Oct - 13:29:36 10° WNW 13:33:54 23° WSW 13:38:28 10° SSW daylight
26 Oct - 02:32:32 10° SSE 02:35:38 19° ESE 02:38:51 10° ENE visible
26 Oct - 03:13:50 10° SW 03:18:15 65° NW 03:23:03 10° NNE visible
26 Oct - 04:59:15 10° WNW 05:02:28 18° NNW 05:05:54 10° NNE visible
26 Oct - 06:46:02 10° NNW 06:47:49 12° N 06:49:39 10° NNE daylight
26 Oct - 08:29:27 10° NNW 08:33:09 19° NNE 08:37:05 10° ENE daylight
26 Oct - 10:12:08 10° NNW 10:17:26 58° NE 10:23:15 10° SE daylight
26 Oct - 11:55:41 10° NW 12:00:30 32° WSW 12:05:41 10° S daylight
27 Oct - 01:00:20 10° SE 01:02:21 13° ESE 01:04:24 10° ENE visible
27 Oct - 02:40:14 10° SW 02:44:40 90° NW 02:49:30 10° NE visible
27 Oct - 04:25:02 10° W 04:28:37 22° NNW 04:32:26 10° NNE visible
27 Oct - 06:11:59 10° NNW 06:13:49 12° N 06:15:43 10° NNE daylight
27 Oct - 07:55:59 10° NNW 07:59:16 17° NNE 08:02:44 10° ENE daylight
27 Oct - 09:38:38 10° NNW 09:43:46 45° NE 09:49:24 10° ESE daylight
27 Oct - 11:21:54 10° NW 11:27:04 42° WSW 11:32:40 10° S daylight
28 Oct - 02:06:47 10° SSW 02:11:09 64° ESE 02:15:53 10° NE visible
28 Oct - 03:50:55 10° W 03:54:48 26° NW 03:58:58 10° NNE visible
28 Oct - 05:37:45 10° NW 05:39:50 13° N 05:41:59 10° NNE visible
28 Oct - 07:22:28 10° NNW 07:25:20 15° NNE 07:28:20 10° NE daylight
28 Oct - 09:05:10 10° NNW 09:10:04 36° NE 09:15:25 10° ESE daylight
28 Oct - 10:48:13 10° NW 10:53:35 57° WSW 10:59:26 10° SSE daylight
28 Oct - 12:34:53 10° W 12:35:53 10° WSW 12:36:54 10° WSW daylight
29 Oct - 01:33:29 10° S 01:37:41 44° ESE 01:42:12 10° NE visible
29 Oct - 03:16:55 10° WSW 03:21:02 33° NW 03:25:30 10° NNE visible
29 Oct - 05:03:26 10° NW 05:05:51 14° NNW 05:08:23 10° NNE visible
29 Oct - 06:48:54 10° NNW 06:51:22 13° NNE 06:53:56 10° NE daylight
29 Oct - 08:31:42 10° NNW 08:36:19 29° NE 08:41:20 10° E daylight
29 Oct - 10:14:36 10° NW 10:20:03 76° WSW 10:26:03 10° SSE daylight
29 Oct - 11:59:27 10° WNW 12:02:36 15° WSW 12:05:53 10° SW daylight
